When you browse on this site, cookies collect data to enhance your experience and personalize the content and advertising you see.
Visit our Privacy Policy to learn more. By continuing to use the site, you agree to this use of cookies and data.
  • en Suisse
  • Liste des pays
  • À 7 jours
  • Température de l'eau
  • Carte météo
  • Widgets météo
  • user-avatar
    Se connecter

    Météo par heure à Bandar Seri Begavan

    Ce jour, 5 Juin, Vendredi

    Heure Température Précipitation Vent Pression Humidité
    00:00 +27°C° 0.5 mm 1 m/s 755 mmHg 90%
    01:00 +27°C° 0.5 mm 1 m/s 755 mmHg 91%
    02:00 +27°C° 0 mm 1 m/s 755 mmHg 93%
    03:00 +27°C° 0.2 mm 1 m/s 755 mmHg 93%
    04:00 +26°C° 0.2 mm 1 m/s 755 mmHg 93%
    05:00 +26°C° 0.2 mm 1 m/s 755 mmHg 94%
    06:00 +27°C° 0.1 mm 1 m/s 755 mmHg 92%
    07:00 +28°C° 0.1 mm 1 m/s 755 mmHg 90%
    08:00 +29°C° 0.1 mm 1 m/s 756 mmHg 88%
    09:00 +31°C° 0 mm 1 m/s 755 mmHg 78%
    10:00 +33°C° 0 mm 1 m/s 755 mmHg 68%
    11:00 +33°C° 0 mm 0 m/s 755 mmHg 59%
    12:00 +34°C° 0.2 mm 1 m/s 754 mmHg 62%
    13:00 +35°C° 0.2 mm 2 m/s 754 mmHg 66%
    14:00 +34°C° 0.2 mm 3 m/s 753 mmHg 69%
    15:00 +34°C° 1 mm 3 m/s 753 mmHg 73%
    16:00 +33°C° 1 mm 3 m/s 753 mmHg 77%
    17:00 +31°C° 1 mm 2 m/s 753 mmHg 80%
    18:00 +30°C° 2.2 mm 2 m/s 754 mmHg 84%
    19:00 +29°C° 2.2 mm 2 m/s 754 mmHg 87%
    20:00 +28°C° 2.2 mm 2 m/s 754 mmHg 91%
    21:00 +28°C° 1.3 mm 1 m/s 755 mmHg 91%
    22:00 +28°C° 1.3 mm 1 m/s 755 mmHg 91%
    23:00 +27°C° 1.3 mm 1 m/s 755 mmHg 92%

    Demain, 6 Juin, Samedi

    Heure Température Précipitation Vent Pression Humidité
    00:00 +27°C° 0.3 mm 1 m/s 755 mmHg 93%
    01:00 +27°C° 0.3 mm 2 m/s 755 mmHg 93%
    02:00 +27°C° 0.3 mm 2 m/s 755 mmHg 94%
    03:00 +26°C° 0.3 mm 2 m/s 754 mmHg 94%
    04:00 +26°C° 0.3 mm 2 m/s 754 mmHg 94%
    05:00 +26°C° 0.3 mm 2 m/s 754 mmHg 94%
    06:00 +27°C° 0 mm 2 m/s 754 mmHg 93%
    07:00 +27°C° 0 mm 2 m/s 755 mmHg 91%
    08:00 +28°C° 0 mm 2 m/s 755 mmHg 90%
    09:00 +30°C° 0 mm 2 m/s 755 mmHg 79%
    10:00 +32°C° 0 mm 1 m/s 755 mmHg 68%
    11:00 +34°C° 0 mm 1 m/s 755 mmHg 58%
    12:00 +35°C° 0.6 mm 2 m/s 754 mmHg 64%
    13:00 +34°C° 0.6 mm 2 m/s 754 mmHg 70%
    14:00 +33°C° 0.6 mm 3 m/s 753 mmHg 76%
    15:00 +33°C° 1.4 mm 3 m/s 753 mmHg 78%
    16:00 +31°C° 1.4 mm 3 m/s 753 mmHg 81%
    17:00 +30°C° 1.4 mm 3 m/s 752 mmHg 84%
    18:00 +30°C° 3 mm 2 m/s 753 mmHg 86%
    19:00 +29°C° 3 mm 2 m/s 754 mmHg 87%
    20:00 +28°C° 3 mm 1 m/s 754 mmHg 89%
    21:00 +28°C° 1.5 mm 1 m/s 755 mmHg 90%
    22:00 +28°C° 1.5 mm 1 m/s 755 mmHg 91%
    23:00 +27°C° 1.5 mm 1 m/s 755 mmHg 91%

    Après-demain, 7 Juin, Dimanche

    Heure Température Précipitation Vent Pression Humidité
    00:00 +27°C° 1.1 mm 1 m/s 755 mmHg 92%
    01:00 +27°C° 1.1 mm 2 m/s 755 mmHg 92%
    02:00 +27°C° 1.1 mm 2 m/s 754 mmHg 92%
    03:00 +27°C° 1.3 mm 2 m/s 754 mmHg 93%
    04:00 +26°C° 1.3 mm 2 m/s 754 mmHg 94%
    05:00 +26°C° 1.3 mm 3 m/s 754 mmHg 95%
    06:00 +26°C° 1.4 mm 2 m/s 755 mmHg 95%
    07:00 +26°C° 1.4 mm 2 m/s 755 mmHg 95%
    08:00 +26°C° 1.4 mm 2 m/s 756 mmHg 96%
    09:00 +26°C° 1.4 mm 2 m/s 756 mmHg 96%
    10:00 +26°C° 1.4 mm 1 m/s 756 mmHg 96%
    11:00 +26°C° 1.4 mm 1 m/s 756 mmHg 96%
    12:00 +26°C° 1.1 mm 2 m/s 755 mmHg 94%
    13:00 +27°C° 1.1 mm 2 m/s 755 mmHg 93%
    14:00 +27°C° 1.1 mm 2 m/s 754 mmHg 92%
    15:00 +26°C° 2.3 mm 2 m/s 754 mmHg 93%
    16:00 +26°C° 2.3 mm 3 m/s 754 mmHg 95%
    17:00 +26°C° 2.3 mm 3 m/s 754 mmHg 96%
    18:00 +25°C° 3.8 mm 3 m/s 755 mmHg 96%
    19:00 +25°C° 3.8 mm 3 m/s 755 mmHg 96%
    20:00 +25°C° 3.8 mm 3 m/s 756 mmHg 97%
    21:00 +25°C° 0.2 mm 3 m/s 756 mmHg 96%
    22:00 +25°C° 0.2 mm 4 m/s 756 mmHg 95%
    23:00 +25°C° 0.2 mm 4 m/s 757 mmHg 95%

    8 Juin, Lundi

    Heure Température Précipitation Vent Pression Humidité
    00:00 +25°C° 0 mm 3 m/s 756 mmHg 94%
    01:00 +25°C° 0 mm 3 m/s 755 mmHg 93%
    02:00 +25°C° 0 mm 2 m/s 755 mmHg 93%
    03:00 +25°C° 0 mm 2 m/s 755 mmHg 92%
    04:00 +25°C° 0 mm 2 m/s 754 mmHg 92%
    05:00 +24°C° 0 mm 1 m/s 754 mmHg 92%
    06:00 +25°C° 0 mm 1 m/s 754 mmHg 90%
    07:00 +26°C° 0 mm 1 m/s 755 mmHg 88%
    08:00 +27°C° 0 mm 1 m/s 755 mmHg 86%
    09:00 +29°C° 0 mm 1 m/s 755 mmHg 74%
    10:00 +32°C° 0 mm 1 m/s 755 mmHg 62%
    11:00 +33°C° 0 mm 0 m/s 755 mmHg 50%
    12:00 +35°C° 0 mm 1 m/s 754 mmHg 49%
    13:00 +35°C° 0 mm 1 m/s 754 mmHg 47%
    14:00 +36°C° 0 mm 2 m/s 753 mmHg 46%
    15:00 +35°C° 0 mm 2 m/s 753 mmHg 50%
    16:00 +34°C° 0 mm 2 m/s 753 mmHg 55%
    17:00 +32°C° 0 mm 2 m/s 753 mmHg 60%
    18:00 +31°C° 0 mm 2 m/s 753 mmHg 67%
    19:00 +29°C° 0 mm 2 m/s 754 mmHg 73%
    20:00 +28°C° 0 mm 2 m/s 755 mmHg 79%
    21:00 +28°C° 0.1 mm 2 m/s 755 mmHg 81%
    22:00 +27°C° 0.1 mm 1 m/s 755 mmHg 83%
    23:00 +27°C° 0.1 mm 1 m/s 756 mmHg 85%

    9 Juin, Mardi

    Heure Température Précipitation Vent Pression Humidité
    00:00 +27°C° 0 mm 1 m/s 755 mmHg 86%
    01:00 +26°C° 0 mm 1 m/s 755 mmHg 88%
    02:00 +26°C° 0 mm 1 m/s 754 mmHg 89%
    03:00 +26°C° 0 mm 1 m/s 754 mmHg 89%
    04:00 +26°C° 0 mm 1 m/s 754 mmHg 89%
    05:00 +26°C° 0 mm 1 m/s 754 mmHg 88%
    06:00 +26°C° 0 mm 1 m/s 754 mmHg 86%
    07:00 +27°C° 0 mm 1 m/s 755 mmHg 83%
    08:00 +27°C° 0 mm 1 m/s 755 mmHg 81%
    09:00 +30°C° 0 mm 1 m/s 755 mmHg 72%
    10:00 +32°C° 0 mm 1 m/s 755 mmHg 63%
    11:00 +32°C° 0 mm 0 m/s 755 mmHg 53%
    12:00 +34°C° 0 mm 1 m/s 754 mmHg 54%
    13:00 +35°C° 0 mm 2 m/s 754 mmHg 55%
    14:00 +35°C° 0 mm 2 m/s 753 mmHg 56%
    15:00 +34°C° 0 mm 2 m/s 753 mmHg 60%
    16:00 +34°C° 0 mm 2 m/s 753 mmHg 63%
    17:00 +32°C° 0 mm 2 m/s 753 mmHg 67%
    18:00 +31°C° 0.2 mm 2 m/s 753 mmHg 73%
    19:00 +29°C° 0.2 mm 1 m/s 754 mmHg 79%
    20:00 +28°C° 0.2 mm 1 m/s 755 mmHg 85%
    21:00 +26°C° 0 mm 0 m/s 755 mmHg 86%
    22:00 +25°C° 0 mm 0 m/s 755 mmHg 87%
    23:00 +25°C° 0 mm 0 m/s 756 mmHg 88%

    10 Juin, Mercredi

    Heure Température Précipitation Vent Pression Humidité
    00:00 +27°C° 0.4 mm 1 m/s 755 mmHg 89%
    01:00 +27°C° 0.4 mm 1 m/s 755 mmHg 91%
    02:00 +26°C° 0.4 mm 1 m/s 754 mmHg 92%
    03:00 +26°C° 0.6 mm 1 m/s 754 mmHg 92%
    04:00 +26°C° 0.6 mm 2 m/s 754 mmHg 92%
    05:00 +26°C° 0.6 mm 2 m/s 754 mmHg 92%
    06:00 +27°C° 0.4 mm 2 m/s 755 mmHg 91%
    07:00 +27°C° 0.4 mm 2 m/s 755 mmHg 89%
    08:00 +28°C° 0.4 mm 2 m/s 756 mmHg 88%
    09:00 +29°C° 0.5 mm 1 m/s 756 mmHg 82%
    10:00 +30°C° 0.5 mm 1 m/s 756 mmHg 75%
    11:00 +32°C° 0.5 mm 1 m/s 756 mmHg 69%
    12:00 +32°C° 0.3 mm 1 m/s 755 mmHg 66%
    13:00 +32°C° 0.3 mm 1 m/s 755 mmHg 64%
    14:00 +34°C° 0.3 mm 2 m/s 754 mmHg 61%
    15:00 +31°C° 0.4 mm 2 m/s 754 mmHg 67%
    16:00 +30°C° 0.4 mm 2 m/s 754 mmHg 72%
    17:00 +28°C° 0.4 mm 2 m/s 754 mmHg 78%
    18:00 +28°C° 0.1 mm 2 m/s 755 mmHg 79%
    19:00 +28°C° 0.1 mm 2 m/s 755 mmHg 79%
    20:00 +27°C° 0.1 mm 2 m/s 755 mmHg 80%
    21:00 +27°C° 0.1 mm 2 m/s 756 mmHg 81%
    22:00 +27°C° 0.1 mm 3 m/s 756 mmHg 83%
    23:00 +26°C° 0.1 mm 3 m/s 757 mmHg 85%
    Voir plus